星链-4013 (STARLINK-4013 )

导读

STARLINK-4013是美国SpaceX公司星链(Starlink)卫星互联网星座的一员,于北京时间2022年5月14日发射入轨,运行在近地低轨道,属于星链大规模组网中的一颗卫星。星链星座旨在为全球提供高速低延迟宽带互联网服务,尤其覆盖传统网络难以到达的偏远、海洋及航空区域,STARLINK-4013的成功入轨,进一步完善了星链星座的全球覆盖能力,助力推进全球卫星互联网服务的落地。

Basic Information
目录编号:
52604
目录名称:
STARLINK-4013
国际标识:
2022-052G
轨道中心:
EARTH
卫星名称:
星链-4013
卫星全名:
星链-4013 (STARLINK-4013 )
卫星状态:
在轨 (已飞行1574 天)
发射日期:
2022-05-14 UTC
国别 :
美国 (US)
星等 :
--
Orbit Information
数据来源 国际轨道数据
星历时间: 2026-09-04T10:56:48+0800
6小时前
查看轨道信息
半长轴: 6837.875km
偏心率: 0.0001024
轨道倾角: 53.161°
近地点辐角 77.769°
升交点赤经 192.101°
平近点角 282.343°
近地点: 459.037km
远地点: 460.439km
周期: 93.787分钟
每日圈数: 15.353985
Detailed Information
固有亮度:
5
最大亮度:
2.5
卫星平台:
Starlink v1.5
覆盖范围:
全球
运营商:
太空探索技术公司
运营商所在国:
美国
制造商(研发单位):
太空探索技术公司
制造商所在国:
美国
使用方式:
暂无
Satellite Introduction
星链(Starlink)计划是由太空探索技术公司(SpaceX)提出的一个巨型低轨卫星互联网星座项目,计划在2019年至2024年间在太空搭建由约1.2万颗卫星组成的“星链”网络,其中1584颗将部署在地球上空550千米处的近地轨道,并从2020年开始工作。该卫星仍在工作。
2D Orbit Map
3D Orbit Map
Orbit Altitude Analysis Chart
Orbit Inclination Analysis Chart
Orbit Comprehensive Analysis Chart
View Comprehensive Chart
Conjunction Data List
Event ID Objects TCA Miss Dist (km) Collision Risk Probability Collision Risk Index (CRI) Action
CDM_260906-214803-132705-260421
2026-09-06T
21:48:07+0000
1.019 km
极远距离
2.390651E-5 中风险 0.63
CDM_260904-123105-260406-777121
2026-09-04T
12:31:17+0000
1.047 km
极远距离
1.772593E-5 中风险 0.6
CDM_260906-190105-260406-286821
2026-09-06T
19:01:09+0000
2.513 km
极远距离
1.552219E-6 低风险 0.39
CDM_260905-133005-260406-473421
2026-09-05T
13:30:06+0000
2.502 km
极远距离
1.445723E-6 低风险 0.38
CDM_260903-111905-260406-468322
2026-09-03T
11:19:56+0000
2.699 km
极远距离
1.383398E-6 低风险 0.38
CDM_260904-182705-260406-419321
2026-09-04T
18:27:09+0000
2.707 km
极远距离
1.341599E-6 低风险 0.38
CDM_260903-160105-260406-287023
2026-09-03T
16:01:38+0000
2.863 km
极远距离
1.272201E-6 低风险 0.37
CDM_260905-074905-260406-426621
2026-09-05T
07:49:32+0000
2.950 km
极远距离
1.224674E-6 低风险 0.37
CDM_260905-200405-260406-508221
2026-09-05T
20:04:04+0000
2.550 km
极远距离
1.160929E-6 低风险 0.36
CDM_260903-135905-260405-364021
2026-09-03T
13:59:03+0000
2.848 km
极远距离
8.214659E-7 极低风险 0.33